Location: Newark
(7.0858°N, 171.3717°E)
Time: 17:23:29
(UTC+00:00)

Transit 2A - Pass Details

Date: 03 December 2020
Orbit: 598 x 960 km, 66.7° (Epoch: 20 January)

Event Time Altitude Azimuth Distance (km) Brightness Sun altitude
Rises 15:26:41 0° 329° (NNW) 2,949 - -43.6°
Reaches altitude 10° 15:29:06 10° 322° (NW) 2,001 - -43.1°
Maximum altitude 15:33:19 42° 251° (WSW) 863 - -42.1°
Drops below altitude 10° 15:37:23 10° 180° (S) 1,931 - -41.2°
Sets 15:39:42 0° 173° (S) 2,833 - -40.7°
